Location: Mason Neck State Park
(38.6428°N, 77.1981°W)
Time: 05:44:45
(UTC-04:00)

Daily predictions for brighter satellites

Satellite Brightness Start Highest point End
(mag) Time Altitude Azimuth Time Altitude Azimuth Time Altitude Azimuth
Cosmos 2333 Rocket 3.8 00:21:21 31° NW 00:21:21 31° NW 00:25:53 10° N
Cosmos 2237 Rocket 3.7 00:26:25 33° NNW 00:26:25 33° NNW 00:30:14 10° N
ATLAS 2AS CENTAUR R/B 3.8 00:32:49 42° ENE 00:32:49 42° ENE 00:38:07 10° NE
Cosmos 2278 Rocket 4.0 00:25:13 10° NW 00:27:48 26° NW 00:27:48 26° NW
CZ-2C R/B 4.3 00:37:35 10° NNE 00:40:15 30° NNE 00:40:15 30° NNE
ATLAS 3B R/B 3.5 01:00:45 10° NNW 01:06:04 44° NNE 01:06:04 44° NNE
USA 238 DEB 4.5 01:17:29 10° NNW 01:23:52 48° NE 01:23:52 48° NE
USA 238 4.5 01:17:35 10° NNW 01:24:01 48° NE 01:24:01 48° NE
Cosmos 2369 Rocket 3.8 01:22:59 10° N 01:26:16 30° NNE 01:26:16 30° NNE
USA 215 4.0 01:35:22 10° NE 01:39:38 44° NE 01:39:38 44° NE
SL-16 R/B 4.2 01:46:55 20° NW 01:46:55 20° NW 01:50:13 10° N
Cosmos 1943 Rocket 3.8 01:42:18 10° N 01:46:26 29° NE 01:46:26 29° NE
NOSS 3-4 (A) 4.3 02:22:20 46° ENE 02:22:20 46° ENE 02:27:01 10° NE
NOSS 3-4 (C) 4.3 02:22:26 45° ENE 02:22:26 45° ENE 02:27:08 10° NE
ATLAS 2AS CENTAUR R/B 4.0 02:20:13 33° WNW 02:21:42 35° NW 02:29:00 10° NNE
NOSS 3-2 (A) 4.1 02:29:27 10° NNW 02:37:02 72° NE 02:38:59 54° ESE
Cosmos 1943 4.4 02:43:07 34° NNW 02:43:07 34° NNW 02:46:59 10° N
Nadezhda 3 Rocket 4.1 03:01:16 68° E 03:01:17 68° E 03:07:34 10° NNE
NPP 4.1 02:58:49 10° NNE 03:03:10 59° N 03:03:10 59° N
Lacrosse 5 rocket 3.6 03:05:58 23° E 03:05:58 23° E 03:08:23 10° ENE
Resurs 1-4 Rocket 2.9 03:03:35 10° NNE 03:08:31 42° E 03:08:31 42° E
Cosmos 2369 Rocket 4.4 03:07:24 10° NW 03:08:01 13° NW 03:08:01 13° NW
CZ-2D R/B 2.6 03:13:41 10° NNE 03:18:51 52° E 03:18:55 52° ESE
Cosmos 1680 Rocket 4.0 03:23:12 53° NNW 03:23:12 53° NNW 03:27:32 10° NNE
RESURS DK-1 3.8 03:25:43 36° NNE 03:25:43 36° NNE 03:28:15 10° NNE
USA 215 4.4 03:18:46 10° NNE 03:24:31 34° NNW 03:26:59 26° WNW
COSMOS 2455 2.8 03:22:00 10° NNW 03:28:03 84° ENE 03:29:08 62° SE
Cosmos 1943 Rocket 3.9 03:25:54 10° NW 03:27:55 21° NW 03:27:55 21° NW
ADEOS 3.6 03:25:50 10° NNE 03:31:03 69° ESE 03:31:11 69° ESE
Cosmos 1953 Rocket 4.3 03:35:11 48° E 03:35:11 48° E 03:39:25 10° NNE
COSMOS 2406 3.1 03:35:40 76° W 03:35:47 76° WNW 03:41:34 10° NNE
NOSS 2-2 (E) 4.2 03:36:50 48° ENE 03:36:50 48° ENE 03:40:31 10° NE
IRS-1D 3.4 03:32:57 10° NNE 03:38:12 84° ESE 03:38:24 81° SSE
IRS P6 4.5 03:33:07 10° NNE 03:38:27 90° E 03:38:38 84° SSW
Meteor 2-8 Rocket 4.3 03:41:08 69° SW 03:41:43 74° W 03:47:53 10° N
SL-27 R/B 4.1 03:43:36 32° NNE 03:43:36 32° NNE 03:45:40 10° NNE
NOSS 3-2 (C) 4.0 03:39:31 10° NW 03:47:00 58° WSW 03:50:12 37° S
ARIANE 5 R/B 2.4 03:44:08 10° N 03:49:24 82° WNW 03:49:48 75° SW
Cosmos 1821 Rocket 3.8 03:43:37 10° N 03:49:44 81° W 03:51:18 53° S
CZ-2D R/B 4.3 03:46:12 10° NNE 03:50:03 40° E 03:50:23 39° ESE
COBE Rocket 3.8 03:47:28 10° NNE 03:52:33 85° ESE 03:53:04 72° S
SL-16 R/B 2.4 03:51:39 55° SSW 03:52:54 69° WSW 03:59:05 10° NNW
Cosmos 1707 4.5 03:52:34 24° ESE 03:53:39 28° E 03:56:59 10° NNE
Cosmos 1371 Rocket 3.9 03:50:04 10° NNW 03:55:28 81° WSW 03:56:33 57° S
USA 267 3.1 03:49:21 10° SE 03:55:54 79° SW 04:02:28 10° NW
Cosmos 1825 Rocket 3.8 03:58:07 59° NW 03:58:07 59° NW 04:02:01 10° N
CENTAUR R/B 3.4 03:50:05 10° NNW 03:58:01 69° NE 04:06:25 10° SE
ADEOS Rocket 3.0 03:52:03 10° N 03:58:06 73° WNW 04:00:01 48° SW
Cosmos 2239 Rocket 4.4 03:54:03 10° NNW 04:00:08 65° W 04:01:33 50° SSW
Cosmos 1470 3.8 03:58:25 10° N 04:02:09 43° E 04:03:45 28° SE
Cosmos 1953 2.4 03:59:25 10° N 04:02:57 68° NNW 04:02:57 68° NNW
GEOS 3 Rocket 4.0 03:59:42 10° NNE 04:04:49 51° NW 04:05:55 44° W
Cosmos 1535 Rocket 4.5 04:01:26 10° NNW 04:07:33 61° W 04:09:16 44° SSW
Cosmos 1818 3.5 04:07:00 53° SSW 04:08:20 86° ESE 04:13:49 10° NNE
Cosmos 1605 Rocket 4.0 04:04:08 10° N 04:10:22 78° E 04:15:44 14° S
COSMOS 2487 3.8 04:09:56 30° SE 04:10:37 33° ESE 04:13:51 10° NE
Cosmos 1934 Rocket 3.9 04:05:35 10° NNW 04:11:50 70° W 04:14:55 32° SSW
NOSS 2-2 (D) 3.3 04:11:50 69° W 04:12:03 71° NW 04:16:34 10° NNE
Okean O Rocket 3.7 04:10:17 10° NE 04:13:50 23° E 04:17:22 10° SSE
ADEOS II 3.9 04:10:13 10° NE 04:14:38 27° E 04:19:01 10° SSE
UNKNOWN OBJECT B 2.7 04:11:47 10° N 04:15:47 77° WNW 04:16:04 72° WSW
Cosmos 1758 4.0 04:15:59 10° NNW 04:19:10 40° WNW 04:19:10 40° WNW
NOSS 2-2 (C) 3.9 04:29:42 40° W 04:30:30 45° NW 04:34:56 10° NNE
Tiangong 1 1.6 04:33:00 43° NNW 04:33:23 47° NNE 04:36:08 10° E
Cosmos 1733 3.1 04:36:29 10° NNW 04:40:14 58° W 04:41:24 39° SSW
Cosmos 2098 Rocket 2.2 04:39:10 10° NNW 04:41:45 51° WNW 04:41:45 51° WNW
Cosmos 1697 Rocket 4.5 04:38:12 10° N 04:43:17 34° ENE 04:48:19 10° SE
Lacrosse 5 rocket 2.4 04:41:40 28° W 04:43:30 40° NW 04:47:55 10° NNE
Delta 2 Rocket 3.0 04:45:44 46° SSW 04:46:10 50° S 04:49:26 10° ESE
MOS 1 Rocket 3.2 04:42:58 10° N 04:47:15 60° WNW 04:49:34 27° SW
USA 161 2.5 04:48:14 31° WNW 04:48:14 31° WNW 04:50:15 10° NNW
Cosmos 2278 3.9 04:41:59 10° NNW 04:47:44 77° ENE 04:53:25 10° SSE
Cosmos 389 Rocket 2.6 04:44:13 10° NNW 04:47:45 52° W 04:49:03 33° SSW
Resurs 1-4 Rocket 3.4 04:44:04 10° NNW 04:48:07 23° WNW 04:49:36 20° W
Cosmos 1842 Rocket 3.9 04:46:42 10° N 04:51:06 67° E 04:55:30 10° SSE
Cosmos-2242 3.3 04:48:20 10° NNW 04:52:35 47° W 04:55:20 20° SSW
CZ-4B R/B 3.4 04:49:34 10° NNE 04:53:54 67° ESE 04:58:20 10° S
Cosmos 2369 3.7 04:49:27 10° NNW 04:55:14 87° ENE 05:00:58 10° SSE
Meteor 2-5 Rocket 3.7 04:52:46 15° SSW 04:57:26 69° W 05:03:14 10° N
CZ-2D R/B 3.6 04:54:50 10° NNW 04:58:29 19° WNW 05:00:15 16° W
PSLV R/B 4.2 04:55:02 10° NNE 04:59:21 57° E 05:03:35 10° S
MOS 1-B 4.4 04:54:57 10° N 05:00:40 60° WNW 05:05:27 15° SSW
Cosmos 921 Rocket 4.2 04:57:40 10° NW 05:01:20 25° W 05:02:20 23° WSW
Cosmos 2056 Rocket 4.5 04:57:13 10° NW 05:01:30 25° W 05:03:28 20° SW
Cosmos 2061 Rocket 4.2 04:59:51 10° N 05:06:07 78° E 05:12:17 10° S
Cosmos 2221 3.8 05:07:59 10° N 05:12:04 42° E 05:16:07 10° SSE
Cosmos 2082 Rocket 2.2 05:08:26 12° SSW 05:13:44 78° WNW 05:19:28 10° NNE
Cosmos 1833 Rocket 2.7 05:09:32 11° SSW 05:14:58 83° WNW 05:20:37 10° NNE
Cosmos 1980 Rocket 3.9 05:11:42 10° N 05:17:00 38° ENE 05:22:15 10° SE
DNEPR-1 R/B 3.7 05:13:15 10° NW 05:17:22 51° WSW 05:21:49 10° SSE
Meteor 2-1 Rocket 4.4 05:13:02 10° N 05:18:44 80° E 05:24:30 10° SSE
Cosmos 158 Rocket 3.9 05:15:39 10° SSW 05:20:38 81° WNW 05:25:47 10° NNE
Cosmos 1656 3.5 05:15:16 10° NNW 05:20:43 84° WSW 05:26:08 10° SSE
CZ-4B R/B 3.1 05:17:47 10° NNE 05:23:11 81° WNW 05:28:28 10° SSW
PAYLOAD B 4.2 05:17:44 10° N 05:23:19 74° WNW 05:28:49 10° SSW
CZ-2C R/B 3.7 05:19:53 10° SSE 05:24:17 82° ENE 05:28:46 10° N
Orbus 7S? 2.4 05:21:58 10° NW 05:24:53 84° NE 05:27:30 10° SE
Okean-O 4.2 05:21:11 10° NNE 05:25:19 37° E 05:29:25 10° SSE
Cosmos 2016 Rocket 4.1 05:20:17 10° N 05:26:34 87° E 05:32:53 10° S
Meteor PRIRODA 4.1 05:25:35 10° NNE 05:29:17 63° ESE 05:32:54 10° S
EXPRESS MD2 3.2 05:25:10 10° NW 05:29:30 65° NNE 05:32:01 10° ESE
Cosmos 1707 4.4 05:27:49 13° WSW 05:29:35 17° WNW 05:32:10 10° NNW
Cosmos 972 Rocket 4.4 05:25:31 10° NNW 05:31:59 90° W 05:37:41 10° SSE
Meteor 1-31 Rocket 3.6 05:29:41 10° NNE 05:33:31 53° E 05:37:21 10° S
Cosmos 1452 Rocket 4.3 05:32:05 10° NW 05:36:37 30° W 05:41:08 10° SSW
Okean 3 Rocket 3.5 05:32:33 10° S 05:36:56 79° W 05:41:23 10° N
USA 267 4.5 05:35:22 10° SSW 05:39:29 17° WSW 05:43:37 10° W
ERS-2 3.5 05:37:10 10° NNE 05:40:41 40° E 05:44:10 10° S
Cosmos 1802 Rocket 4.1 05:35:28 10° NNW 05:41:47 60° W 05:48:01 10° S
IRS-1C Rocket 4.4 05:40:01 10° N 05:45:04 48° WNW 05:50:06 10° SW
Cosmos 1908 4.1 05:41:32 10° N 05:45:20 56° E 05:49:08 10° SSE
CENTAUR R/B 3.9 05:41:42 10° NW 05:48:21 28° WSW 05:55:11 10° SSW
Cosmos 1459 Rocket 4.4 05:44:00 10° NNW 05:49:44 42° W 05:55:32 10° SSW
Okean O Rocket 2.6 05:46:21 10° N 05:50:10 29° WNW 05:53:58 10° SW
BREEZE-M DEB (TANK) 3.7 05:44:51 10° SW 05:52:24 57° SSE 05:55:30 10° ENE
